| time (UTC) | temp C | wind direction | speed KPH | gust KPH | rain 1hr cm | rain 24hr cm | rain mn cm | humidity % | barometer mb |
| 20260510200710 | 23 | 269 | 19.3 | 32.2 | 0.00 | 0.00 | 0.00 | 35 | 1020.1 |
| 20260510194711 | 23 | 26 | 8.0 | 27.4 | 0.00 | 0.00 | 0.00 | 35 | 1020.2 |
| 20260510193711 | 22 | 274 | 9.7 | 19.3 | 0.00 | 0.00 | 0.00 | 37 | 1020.2 |
| 20260510190711 | 22 | 318 | 9.7 | 29.0 | 0.00 | 0.00 | 0.00 | 32 | 1020.4 |
| 20260510185710 | 21 | 261 | 3.2 | 29.0 | 0.00 | 0.00 | 0.00 | 33 | 1020.6 |
| 20260510184711 | 21 | 240 | 4.8 | 20.9 | 0.00 | 0.00 | 0.00 | 37 | 1020.7 |
| 20260510183710 | 21 | 298 | 8.0 | 19.3 | 0.00 | 0.00 | 0.00 | 35 | 1020.7 |
| 20260510182711 | 22 | 298 | 16.1 | 24.1 | 0.00 | 0.00 | 0.00 | 45 | 1020.9 |
| 20260510181710 | 21 | 235 | 14.5 | 20.9 | 0.00 | 0.00 | 0.00 | 32 | 1020.9 |
| 20260510174710 | 21 | 261 | 11.3 | 27.4 | 0.00 | 0.00 | 0.00 | 35 | 1021.1 |
| 20260510173711 | 20 | 253 | 17.7 | 27.4 | 0.00 | 0.00 | 0.00 | 35 | 1021.2 |
| 20260510172710 | 20 | 244 | 11.3 | 22.5 | 0.00 | 0.00 | 0.00 | 34 | 1021.4 |
| 20260510171710 | 20 | 239 | 17.7 | 25.7 | 0.00 | 0.00 | 0.00 | 36 | 1021.4 |
| 20260510163710 | 19 | 246 | 12.9 | 20.9 | 0.00 | 0.00 | 0.00 | 35 | 1021.8 |
| 20260510162710 | 18 | 201 | 3.2 | 19.3 | 0.00 | 0.00 | 0.00 | 37 | 1021.9 |
| 20260510161711 | 18 | 220 | 8.0 | 19.3 | 0.00 | 0.00 | 0.00 | 36 | 1022.0 |
| 20260510160710 | 18 | 244 | 8.0 | 19.3 | 0.00 | 0.00 | 0.00 | 36 | 1022.0 |
| 20260510155710 | 17 | 200 | 3.2 | 19.3 | 0.00 | 0.00 | 0.00 | 35 | 1021.9 |
| 20260510153710 | 17 | 265 | 11.3 | 19.3 | 0.00 | 0.00 | 0.00 | 37 | 1021.8 |
| 20260510152710 | 17 | 240 | 9.7 | 16.1 | 0.00 | 0.00 | 0.00 | 36 | 1021.9 |
| 20260510151710 | 16 | 261 | 4.8 | 16.1 | 0.00 | 0.00 | 0.00 | 36 | 1021.8 |
| 20260510150711 | 16 | 195 | 9.7 | 19.3 | 0.00 | 0.00 | 0.00 | 38 | 1021.8 |
| 20260510144710 | 15 | 211 | 11.3 | 19.3 | 0.00 | 0.00 | 0.00 | 39 | 1022.0 |
| 20260510143710 | 15 | 205 | 12.9 | 19.3 | 0.00 | 0.00 | 0.00 | 39 | 1022.0 |
| 20260510142710 | 15 | 240 | 8.0 | 16.1 | 0.00 | 0.00 | 0.00 | 44 | 1022.0 |
| 20260510140711 | 13 | 227 | 4.8 | 12.9 | 0.00 | 0.00 | 0.00 | 46 | 1021.7 |
| 20260510135710 | 12 | 241 | 4.8 | 9.7 | 0.00 | 0.00 | 0.00 | 51 | 1021.7 |
| 20260510134710 | 11 | 294 | 6.4 | 11.3 | 0.00 | 0.00 | 0.00 | 51 | 1021.7 |
| 20260510132710 | 9 | 283 | 1.6 | 4.8 | 0.00 | 0.00 | 0.00 | 63 | 1021.5 |
| 20260510131710 | 8 | 306 | 1.6 | 4.8 | 0.00 | 0.00 | 0.00 | 65 | 1021.5 |
| 20260510130710 | 7 | 294 | 3.2 | 4.8 | 0.00 | 0.00 | 0.00 | 67 | 1021.4 |
| 20260510125710 | 6 | 296 | 3.2 | 4.8 | 0.00 | 0.00 | 0.00 | 70 | 1021.4 |
| 20260510124710 | 6 | 284 | 1.6 | 3.2 | 0.00 | 0.00 | 0.00 | 74 | 1021.4 |
| 20260510123710 | 5 | 272 | 1.6 | 4.8 | 0.00 | 0.00 | 0.00 | 73 | 1021.5 |
| 20260510122710 | 4 | 296 | 3.2 | 4.8 | 0.00 | 0.00 | 0.00 | 71 | 1021.6 |
| 20260510120711 | 3 | 278 | 0.0 | 0.0 | 0.00 | 0.00 | 0.00 | 72 | 1021.1 |
| 20260510115711 | 3 | 278 | 0.0 | 1.6 | 0.00 | 0.00 | 0.00 | 71 | 1021.0 |
| 20260510114711 | 3 | 278 | 1.6 | 1.6 | 0.00 | 0.00 | 0.00 | 71 | 1021.0 |
| 20260510113710 | 3 | 278 | 1.6 | 3.2 | 0.00 | 0.00 | 0.00 | 70 | 1020.8 |
| 20260510112710 | 3 | 278 | 1.6 | 3.2 | 0.00 | 0.00 | 0.00 | 70 | 1020.7 |
| 20260510111711 | 4 | 277 | 1.6 | 3.2 | 0.00 | 0.00 | 0.00 | 69 | 1020.9 |
| 20260510110710 | 4 | 318 | 1.6 | 3.2 | 0.00 | 0.00 | 0.00 | 70 | 1020.7 |
| 20260510105710 | 4 | 318 | 1.6 | 3.2 | 0.00 | 0.00 | 0.00 | 70 | 1020.4 |
| 20260510104711 | 4 | 276 | 0.0 | 0.0 | 0.00 | 0.00 | 0.00 | 71 | 1020.4 |
| 20260510103710 | 4 | 276 | 0.0 | 3.2 | 0.00 | 0.00 | 0.00 | 69 | 1020.3 |
| 20260510102711 | 4 | 276 | 0.0 | 3.2 | 0.00 | 0.00 | 0.00 | 69 | 1020.3 |
| 20260510100710 | 4 | 282 | 1.6 | 3.2 | 0.00 | 0.00 | 0.00 | 68 | 1020.1 |
| 20260510095710 | 4 | 283 | 1.6 | 4.8 | 0.00 | 0.00 | 0.00 | 68 | 1019.8 |
| 20260510093711 | 4 | 288 | 1.6 | 4.8 | 0.00 | 0.00 | 0.00 | 70 | 1019.6 |
| 20260510092711 | 4 | 313 | 1.6 | 4.8 | 0.00 | 0.00 | 0.00 | 70 | 1019.6 |
| 20260510091710 | 4 | 314 | 3.2 | 4.8 | 0.00 | 0.00 | 0.00 | 69 | 1019.5 |
| 20260510090711 | 4 | 295 | 1.6 | 3.2 | 0.00 | 0.00 | 0.00 | 67 | 1019.6 |
| 20260510085711 | 4 | 288 | 3.2 | 4.8 | 0.00 | 0.00 | 0.00 | 67 | 1019.6 |
| 20260510084710 | 4 | 304 | 1.6 | 3.2 | 0.00 | 0.00 | 0.00 | 66 | 1019.2 |
| 20260510082711 | 5 | 185 | 0.0 | 1.6 | 0.00 | 0.00 | 0.00 | 64 | 1019.0 |
| 20260510081711 | 5 | 185 | 0.0 | 0.0 | 0.00 | 0.00 | 0.00 | 64 | 1018.8 |
| 20260510080710 | 5 | 185 | 0.0 | 4.8 | 0.00 | 0.00 | 0.00 | 62 | 1019.0 |
| 20260510075711 | 6 | 22 | 0.0 | 0.0 | 0.00 | 0.00 | 0.00 | 59 | 1019.0 |
| 20260510074710 | 6 | 22 | 0.0 | 0.0 | 0.00 | 0.00 | 0.00 | 60 | 1018.9 |
| 20260510073711 | 6 | 22 | 0.0 | 0.0 | 0.00 | 0.00 | 0.00 | 59 | 1018.7 |
| 20260510072711 | 6 | 22 | 0.0 | 1.6 | 0.00 | 0.00 | 0.00 | 57 | 1018.9 |
| 20260510071710 | 7 | 22 | 0.0 | 3.2 | 0.00 | 0.00 | 0.00 | 58 | 1018.7 |
| 20260510065710 | 7 | 22 | 0.0 | 0.0 | 0.00 | 0.00 | 0.00 | 55 | 1018.5 |
| 20260510064711 | 7 | 22 | 0.0 | 3.2 | 0.00 | 0.00 | 0.00 | 56 | 1018.4 |
| 20260510063711 | 8 | 22 | 0.0 | 3.2 | 0.00 | 0.00 | 0.00 | 54 | 1018.3 |
| 20260510061710 | 9 | 22 | 0.0 | 0.0 | 0.00 | 0.00 | 0.00 | 49 | 1017.9 |
| 20260510060710 | 9 | 22 | 0.0 | 0.0 | 0.00 | 0.00 | 0.00 | 48 | 1017.9 |
| 20260510055711 | 10 | 22 | 0.0 | 3.2 | 0.00 | 0.00 | 0.00 | 47 | 1018.0 |
| 20260510054711 | 10 | 42 | 0.0 | 3.2 | 0.00 | 0.00 | 0.00 | 46 | 1018.0 |
| 20260510053710 | 10 | 38 | 1.6 | 3.2 | 0.00 | 0.00 | 0.00 | 45 | 1018.1 |
| 20260510051711 | 11 | 336 | 3.2 | 9.7 | 0.00 | 0.00 | 0.00 | 44 | 1017.5 |
| 20260510050710 | 11 | 10 | 4.8 | 12.9 | 0.00 | 0.00 | 0.00 | 44 | 1017.4 |
| 20260510045711 | 12 | 10 | 8.0 | 12.9 | 0.00 | 0.00 | 0.00 | 42 | 1017.1 |
| 20260510044710 | 12 | 32 | 8.0 | 20.9 | 0.00 | 0.00 | 0.00 | 42 | 1017.1 |
| 20260510043711 | 12 | 43 | 9.7 | 20.9 | 0.00 | 0.00 | 0.00 | 41 | 1016.8 |
| 20260510041711 | 12 | 353 | 8.0 | 19.3 | 0.00 | 0.00 | 0.00 | 42 | 1016.6 |
| 20260510040711 | 12 | 28 | 8.0 | 16.1 | 0.00 | 0.00 | 0.00 | 42 | 1016.6 |
| 20260510035711 | 13 | 13 | 4.8 | 16.1 | 0.00 | 0.00 | 0.00 | 42 | 1016.5 |
| 20260510034710 | 13 | 5 | 8.0 | 14.5 | 0.00 | 0.00 | 0.00 | 42 | 1016.4 |
| 20260510033711 | 13 | 36 | 4.8 | 14.5 | 0.00 | 0.00 | 0.00 | 42 | 1016.2 |
| 20260510031710 | 13 | 5 | 6.4 | 14.5 | 0.00 | 0.00 | 0.00 | 41 | 1015.6 |
| 20260510030710 | 14 | 3 | 4.8 | 14.5 | 0.00 | 0.00 | 0.00 | 41 | 1015.3 |
| 20260510025711 | 14 | 9 | 6.4 | 14.5 | 0.00 | 0.00 | 0.00 | 40 | 1015.2 |
| 20260510024711 | 15 | 0 | 6.4 | 14.5 | 0.00 | 0.00 | 0.00 | 40 | 1014.9 |
| 20260510022710 | 15 | 8 | 8.0 | 14.5 | 0.00 | 0.00 | 0.00 | 38 | 1014.4 |
| 20260510021711 | 16 | 327 | 8.0 | 20.9 | 0.00 | 0.00 | 0.00 | 37 | 1014.2 |
| 20260510015710 | 16 | 0 | 9.7 | 19.3 | 0.00 | 0.00 | 0.00 | 35 | 1013.7 |
| 20260510014710 | 17 | 3 | 8.0 | 14.5 | 0.00 | 0.00 | 0.00 | 34 | 1013.5 |
| 20260510013710 | 17 | 24 | 8.0 | 19.3 | 0.00 | 0.00 | 0.00 | 34 | 1013.1 |
| 20260510012710 | 18 | 17 | 9.7 | 20.9 | 0.00 | 0.00 | 0.00 | 34 | 1012.9 |
| 20260510011710 | 18 | 335 | 11.3 | 19.3 | 0.00 | 0.00 | 0.00 | 33 | 1012.7 |
| 20260510010710 | 18 | 0 | 11.3 | 20.9 | 0.00 | 0.00 | 0.00 | 33 | 1012.4 |
| 20260510005711 | 19 | 335 | 4.8 | 19.3 | 0.00 | 0.00 | 0.00 | 32 | 1012.2 |
| 20260510004710 | 19 | 5 | 8.0 | 20.9 | 0.00 | 0.00 | 0.00 | 31 | 1012.1 |
| 20260510003710 | 20 | 353 | 12.9 | 22.5 | 0.00 | 0.00 | 0.00 | 30 | 1012.0 |
| 20260510002710 | 20 | 26 | 12.9 | 27.4 | 0.00 | 0.00 | 0.00 | 30 | 1011.9 |
| 20260510000710 | 20 | 358 | 16.1 | 24.1 | 0.00 | 0.00 | 0.00 | 33 | 1011.5 |
| 20260509235711 | 20 | 11 | 8.0 | 19.3 | 0.00 | 0.00 | 0.00 | 37 | 1011.5 |
| 20260509234711 | 20 | 15 | 6.4 | 19.3 | 0.00 | 0.00 | 0.00 | 42 | 1011.3 |
| 20260509233711 | 19 | 0 | 9.7 | 16.1 | 0.00 | 0.00 | 0.00 | 43 | 1011.3 |
| 20260509231710 | 19 | 33 | 8.0 | 14.5 | 0.00 | 0.00 | 0.00 | 45 | 1011.4 |
| 20260509230711 | 19 | 0 | 3.2 | 11.3 | 0.00 | 0.00 | 0.00 | 45 | 1011.3 |
| 20260509225711 | 19 | 16 | 6.4 | 19.3 | 0.00 | 0.00 | 0.00 | 43 | 1011.4 |
| 20260509224710 | 19 | 330 | 8.0 | 14.5 | 0.00 | 0.00 | 0.00 | 44 | 1011.4 |
| 20260509223710 | 19 | 358 | 6.4 | 16.1 | 0.00 | 0.00 | 0.00 | 45 | 1011.3 |
| 20260509222710 | 19 | 1 | 9.7 | 22.5 | 0.00 | 0.00 | 0.00 | 44 | 1011.4 |
| 20260509221711 | 19 | 302 | 4.8 | 14.5 | 0.00 | 0.00 | 0.00 | 48 | 1011.4 |
| 20260509220710 | 19 | 335 | 4.8 | 19.3 | 0.00 | 0.00 | 0.00 | 47 | 1011.3 |
| 20260509215710 | 20 | 329 | 4.8 | 19.3 | 0.00 | 0.00 | 0.00 | 48 | 1011.5 |
| 20260509214710 | 20 | 11 | 8.0 | 19.3 | 0.00 | 0.00 | 0.00 | 45 | 1011.3 |
| 20260509213710 | 20 | 5 | 12.9 | 27.4 | 0.00 | 0.00 | 0.00 | 45 | 1011.3 |
| 20260509212710 | 20 | 22 | 8.0 | 20.9 | 0.00 | 0.00 | 0.00 | 47 | 1011.1 |
| 20260509211710 | 20 | 5 | 9.7 | 14.5 | 0.00 | 0.00 | 0.00 | 48 | 1011.1 |
| 20260509210710 | 20 | 49 | 4.8 | 12.9 | 0.00 | 0.00 | 0.00 | 45 | 1011.0 |
| 20260509205710 | 20 | 9 | 4.8 | 19.3 | 0.00 | 0.00 | 0.00 | 44 | 1011.0 |
| 20260509202710 | 20 | 59 | 12.9 | 22.5 | 0.00 | 0.00 | 0.00 | 42 | 1010.9 |